Weather History for Wrangell, AK

Change the Weather History Date:

Monday, November 19, 2012

  Actual Average Record
Temperature  
Mean Temperature 36 °F -  
Max Temperature 37 °F 39 °F 53 °F (1993)
Min Temperature 35 °F 29 °F 7 °F (1963)
Degree Days  
Heating Degree Days 29    
Moisture  
Dew Point 23 °F    
Average Humidity 57    
Maximum Humidity 70    
Minimum Humidity 48    
Precipitation  
Precipitation 0.00 in - - ()
Sea Level Pressure  
Sea Level Pressure 29.25 in    
Wind  
Wind Speed 14 mph (East)    
Max Wind Speed 21 mph    
Max Gust Speed 25 mph    
Visibility 10 miles    
Events      
Averages and records for this station are not official NWS values.
T = Trace of Precipitation, MM = Missing Value Source: NWS Daily Summary

Daily Weather History Graph

Daily Weather History Graph

Search for Another Location

Airport:

Trip Planner

Search our weather history database for the weather conditions in past years. The results will help you decide how hot, cold, wet, or windy it might be!

Date:

Astronomy

Nov. 19, 2012 Rise Set
Actual Time 7:38 AM AKST 3:31 PM AKST
Civil Twilight 6:54 AM AKST 4:15 PM AKST
Nautical Twilight 6:06 AM AKST 5:02 PM AKST
Astronomical Twilight 5:22 AM AKST 5:47 PM AKST
Moon 12:16 PM AKST (11/19) 10:40 PM AKST (11/19)
Length of Visible Light 9h 21m
Length of Day
7h 53m
Waxing Crescent, 42% of the Moon is Illuminated
Nov 19
Waxing Crescent
Nov 20
First Quarter
Nov 28
Full
Dec 6
Last Quarter
Dec 12
New

Hourly Weather History & Observations

Time (AKST) Temp. Windchill Dew Point Humidity Pressure Visibility Wind Dir Wind Speed Gust Speed Precip Events Conditions
12:16 AM 35.6 °F 28.6 °F 21.2 °F 56% 29.12 in 10.0 mi SE 9.2 mph 16.1 mph N/A   Mostly Cloudy
12:36 AM 35.6 °F 26.2 °F 21.2 °F 56% 29.12 in 10.0 mi ESE 15.0 mph 21.9 mph N/A   Mostly Cloudy
12:56 AM 35.6 °F 26.2 °F 19.4 °F 52% 29.12 in 10.0 mi East 15.0 mph 19.6 mph N/A   Clear
1:16 AM 35.6 °F 27.1 °F 21.2 °F 56% 29.13 in 10.0 mi East 12.7 mph 24.2 mph N/A   Mostly Cloudy
1:36 AM 35.6 °F 27.5 °F 19.4 °F 52% 29.13 in 10.0 mi East 11.5 mph - N/A   Scattered Clouds
1:56 AM 35.6 °F 26.2 °F 23.0 °F 60% 29.14 in 10.0 mi East 15.0 mph - N/A   Mostly Cloudy
2:16 AM 35.6 °F 26.6 °F 21.2 °F 56% 29.15 in 10.0 mi East 13.8 mph 19.6 mph N/A   Overcast
2:36 AM 35.6 °F 27.1 °F 23.0 °F 60% 29.15 in 10.0 mi ESE 12.7 mph - N/A   Overcast
2:56 AM 35.6 °F 27.1 °F 23.0 °F 60% 29.14 in 10.0 mi ESE 12.7 mph - N/A   Overcast
3:16 AM 35.6 °F 26.2 °F 24.8 °F 65% 29.13 in 10.0 mi East 15.0 mph 20.7 mph N/A   Overcast
3:36 AM 35.6 °F 26.2 °F 23.0 °F 60% 29.13 in 10.0 mi East 15.0 mph 19.6 mph N/A   Overcast
3:56 AM 35.6 °F 26.6 °F 24.8 °F 65% 29.13 in 10.0 mi ESE 13.8 mph 18.4 mph N/A   Overcast
4:16 AM 35.6 °F 26.6 °F 24.8 °F 65% 29.13 in 10.0 mi East 13.8 mph 20.7 mph N/A   Mostly Cloudy
4:36 AM 35.6 °F 26.2 °F 24.8 °F 65% 29.13 in 10.0 mi East 15.0 mph 20.7 mph N/A   Overcast
4:56 AM 35.6 °F 26.2 °F 24.8 °F 65% 29.14 in 10.0 mi East 15.0 mph - N/A   Overcast
5:16 AM 35.6 °F 26.2 °F 24.8 °F 65% 29.14 in 10.0 mi East 15.0 mph - N/A   Overcast
5:36 AM 35.6 °F 27.5 °F 24.8 °F 65% 29.14 in 10.0 mi East 11.5 mph - N/A   Mostly Cloudy
5:56 AM 37.4 °F 27.2 °F 26.6 °F 65% 29.14 in 10.0 mi East 19.6 mph 24.2 mph N/A   Mostly Cloudy
6:16 AM 37.4 °F 28.9 °F 28.4 °F 70% 29.17 in 10.0 mi East 13.8 mph 24.2 mph N/A   Mostly Cloudy
6:36 AM 37.4 °F 27.8 °F 26.6 °F 65% 29.17 in 10.0 mi East 17.3 mph 23.0 mph N/A   Mostly Cloudy
6:56 AM 37.4 °F 28.2 °F 26.6 °F 65% 29.18 in 10.0 mi East 16.1 mph 20.7 mph N/A   Mostly Cloudy
7:16 AM 37.4 °F 28.5 °F 24.8 °F 60% 29.19 in 10.0 mi East 15.0 mph 21.9 mph N/A   Mostly Cloudy
7:36 AM 35.6 °F 26.6 °F 24.8 °F 65% 29.19 in 10.0 mi East 13.8 mph - N/A   Mostly Cloudy
7:56 AM 37.4 °F 27.8 °F 23.0 °F 56% 29.20 in 10.0 mi ESE 17.3 mph 21.9 mph N/A   Mostly Cloudy
8:16 AM 35.6 °F 25.5 °F 23.0 °F 60% 29.21 in 10.0 mi East 17.3 mph 23.0 mph N/A   Mostly Cloudy
8:36 AM 35.6 °F 25.5 °F 24.8 °F 65% 29.22 in 10.0 mi East 17.3 mph - N/A   Mostly Cloudy
8:56 AM 35.6 °F 25.9 °F 21.2 °F 56% 29.22 in 10.0 mi East 16.1 mph 21.9 mph N/A   Mostly Cloudy
9:16 AM 35.6 °F 26.2 °F 21.2 °F 56% 29.22 in 10.0 mi East 15.0 mph 19.6 mph N/A   Mostly Cloudy
9:36 AM 37.4 °F 28.9 °F 23.0 °F 56% 29.23 in 10.0 mi East 13.8 mph - N/A   Mostly Cloudy
9:56 AM 37.4 °F 28.9 °F 24.8 °F 60% 29.23 in 10.0 mi East 13.8 mph 19.6 mph N/A   Mostly Cloudy
10:16 AM 37.4 °F 29.3 °F 24.8 °F 60% 29.24 in 10.0 mi East 12.7 mph - N/A   Mostly Cloudy
10:36 AM 37.4 °F 29.3 °F 24.8 °F 60% 29.24 in 10.0 mi East 12.7 mph - N/A   Mostly Cloudy
10:56 AM 37.4 °F 28.5 °F 24.8 °F 60% 29.24 in 10.0 mi East 15.0 mph 19.6 mph N/A   Mostly Cloudy
11:16 AM 37.4 °F 28.9 °F 24.8 °F 60% 29.24 in 10.0 mi East 13.8 mph 20.7 mph N/A   Mostly Cloudy
11:36 AM 37.4 °F 27.8 °F 23.0 °F 56% 29.23 in 10.0 mi East 17.3 mph - N/A   Mostly Cloudy
11:56 AM 37.4 °F 29.3 °F 23.0 °F 56% 29.24 in 10.0 mi East 12.7 mph - N/A   Mostly Cloudy
12:16 PM 37.4 °F 28.2 °F 23.0 °F 56% 29.24 in 10.0 mi East 16.1 mph - N/A   Mostly Cloudy
12:36 PM 37.4 °F 28.5 °F 24.8 °F 60% 29.25 in 10.0 mi East 15.0 mph - N/A   Mostly Cloudy
12:56 PM 37.4 °F 28.9 °F 24.8 °F 60% 29.25 in 10.0 mi East 13.8 mph - N/A   Mostly Cloudy
1:16 PM 37.4 °F 28.2 °F 24.8 °F 60% 29.25 in 10.0 mi East 16.1 mph 21.9 mph N/A   Mostly Cloudy
1:36 PM 37.4 °F 27.8 °F 21.2 °F 52% 29.25 in 10.0 mi ESE 17.3 mph 20.7 mph N/A   Mostly Cloudy
1:56 PM 37.4 °F 28.2 °F 21.2 °F 52% 29.26 in 10.0 mi East 16.1 mph 20.7 mph N/A   Mostly Cloudy
2:16 PM 37.4 °F 28.9 °F 23.0 °F 56% 29.27 in 10.0 mi East 13.8 mph - N/A   Mostly Cloudy
2:36 PM 37.4 °F 28.2 °F 23.0 °F 56% 29.28 in 10.0 mi East 16.1 mph 19.6 mph N/A   Mostly Cloudy
2:56 PM 37.4 °F 28.5 °F 21.2 °F 52% 29.28 in 10.0 mi ESE 15.0 mph 19.6 mph N/A   Mostly Cloudy
3:16 PM 37.4 °F 28.9 °F 21.2 °F 52% 29.29 in 10.0 mi East 13.8 mph - N/A   Mostly Cloudy
3:36 PM 37.4 °F 28.2 °F 21.2 °F 52% 29.29 in 10.0 mi East 16.1 mph 20.7 mph N/A   Mostly Cloudy
3:56 PM 37.4 °F 28.5 °F 23.0 °F 56% 29.30 in 10.0 mi East 15.0 mph 20.7 mph N/A   Overcast
4:16 PM 37.4 °F 27.8 °F 21.2 °F 52% 29.30 in 10.0 mi ESE 17.3 mph 23.0 mph N/A   Overcast
4:36 PM 37.4 °F 27.8 °F 21.2 °F 52% 29.30 in 10.0 mi East 17.3 mph 20.7 mph N/A   Overcast
4:56 PM 37.4 °F 27.8 °F 21.2 °F 52% 29.30 in 10.0 mi East 17.3 mph 21.9 mph N/A   Overcast
5:16 PM 37.4 °F 27.8 °F 21.2 °F 52% 29.30 in 10.0 mi East 17.3 mph 24.2 mph N/A   Overcast
5:36 PM 37.4 °F 28.5 °F 21.2 °F 52% 29.31 in 10.0 mi East 15.0 mph - N/A   Overcast
5:56 PM 35.6 °F 25.5 °F 21.2 °F 56% 29.31 in 10.0 mi East 17.3 mph 23.0 mph N/A   Overcast
6:16 PM 35.6 °F 26.6 °F 21.2 °F 56% 29.32 in 10.0 mi ESE 13.8 mph - N/A   Overcast
6:36 PM 35.6 °F 25.9 °F 21.2 °F 56% 29.33 in 10.0 mi East 16.1 mph - N/A   Overcast
6:56 PM 35.6 °F 25.2 °F 21.2 °F 56% 29.33 in 10.0 mi ESE 18.4 mph 24.2 mph N/A   Overcast
7:16 PM 35.6 °F 25.2 °F 21.2 °F 56% 29.34 in 10.0 mi East 18.4 mph - N/A   Overcast
7:36 PM 35.6 °F 25.9 °F 21.2 °F 56% 29.35 in 10.0 mi East 16.1 mph 21.9 mph N/A   Overcast
7:56 PM 37.4 °F 28.5 °F 19.4 °F 48% 29.35 in 10.0 mi East 15.0 mph 20.7 mph N/A   Mostly Cloudy
8:16 PM 35.6 °F 26.6 °F 21.2 °F 56% 29.36 in 10.0 mi ESE 13.8 mph 17.3 mph N/A   Mostly Cloudy
8:36 PM 35.6 °F 25.5 °F 21.2 °F 56% 29.37 in 10.0 mi East 17.3 mph - N/A   Mostly Cloudy
8:56 PM 35.6 °F 25.9 °F 19.4 °F 52% 29.38 in 10.0 mi East 16.1 mph 25.3 mph N/A   Mostly Cloudy
9:16 PM 35.6 °F 25.5 °F 19.4 °F 52% 29.39 in 10.0 mi East 17.3 mph 25.3 mph N/A   Mostly Cloudy
9:36 PM 35.6 °F 25.9 °F 21.2 °F 56% 29.39 in 10.0 mi East 16.1 mph 20.7 mph N/A   Mostly Cloudy
9:56 PM 35.6 °F 25.5 °F 19.4 °F 52% 29.40 in 10.0 mi East 17.3 mph 21.9 mph N/A   Mostly Cloudy
10:16 PM 35.6 °F 25.9 °F 19.4 °F 52% 29.40 in 10.0 mi ESE 16.1 mph - N/A   Mostly Cloudy
10:36 PM 35.6 °F 25.9 °F 21.2 °F 56% 29.41 in 10.0 mi East 16.1 mph - N/A   Mostly Cloudy
10:56 PM 35.6 °F 25.5 °F 21.2 °F 56% 29.41 in 10.0 mi ESE 17.3 mph - N/A   Mostly Cloudy
11:16 PM 35.6 °F 24.5 °F 19.4 °F 52% 29.40 in 10.0 mi East 20.7 mph 25.3 mph N/A   Overcast
11:36 PM 35.6 °F 25.5 °F 21.2 °F 56% 29.40 in 10.0 mi ESE 17.3 mph 23.0 mph N/A   Overcast
11:56 PM 35.6 °F 25.5 °F 21.2 °F 56% 29.41 in 10.0 mi East 17.3 mph 23.0 mph N/A   Overcast